Location: Sebastopol
(38.4021°N, 122.8239°W)
Time: 15:40:33
(UTC+00:00)

SL-19 R/B - Pass Details

Date: 29 October 2020
Orbit: 358 x 808 km, 99.4° (Epoch: 01 December)

Event Time Altitude Azimuth Distance (km) Brightness Sun altitude
Rises 13:34:20 0° 3° (N) 2,196 7.4 -12.5°
Reaches altitude 10° 13:36:20 10° 353° (N) 1,356 6.2 -12.1°
Maximum altitude 13:38:53 31° 288° (WNW) 687 4.3 -11.6°
Drops below altitude 10° 13:41:34 10° 224° (SW) 1,421 6.1 -11.1°
Sets 13:43:43 0° 213° (SSW) 2,327 7.3 -10.6°
